Regional Weather Roundup
Issued by NWS

Home | Current Version | Previous Version | Graphics & Text | Print | Product List | Glossary On
Versions: 1 2 3 4 5 6 7 8 9 10 11 12 13 14 15 16 17 18 19 20 21 22 23 24 25 26 27 28 29 30 31 32 33 34 35 36 37 38 39 40 41 42 43 44 45 46 47 48 49 50
000
ASUS43 KMPX 020210
RWRMN
WEATHER ROUNDUP FOR MINNESOTA
NATIONAL WEATHER SERVICE TWIN CITIES/CHANHASSEN MN
900 PM CDT SAT AUG 01 2015


NOTE: "FAIR" INDICATES FEW OR NO CLOUDS BELOW 12,000 FEET WITH NO
SIGNIFICANT WEATHER AND/OR OBSTRUCTIONS TO VISIBILITY. N/A MEANS
CURRENT SKY AND/OR WEATHER CONDITIONS ARE NOT AVAILABLE.

MNZ060>063-068>070-020300-
   Twin Cities Metro

CITY           SKY/WX    TMP DP  RH WIND       PRES   REMARKS
TWIN CITIES    PTCLDY    82  68  62 S9        29.78F
ST PAUL        CLEAR     77  67  71 S6        29.78F
CRYSTAL        CLEAR     81  67  62 S9        29.76F
LAKEVILLE      CLEAR     73  66  78 CALM      29.80S
EDEN PRAIRIE   CLEAR     80  69  69 SW7       29.77F
SOUTH ST PAUL  CLEAR     79  66  64 S6        29.78F
LAKE ELMO      FAIR      75  66  73 S5        29.80S
$$
MNZ001>005-007-008-013>017-022>024-027-028-020300-
   Northwest Minnesota

CITY           SKY/WX    TMP DP  RH WIND       PRES   REMARKS
BEMIDJI        PTCLDY    72  59  62 SW3       29.75S
HALLOCK        PTCLDY    73  63  68 SW8       29.67S
ROSEAU         PTCLDY    72  63  73 SW3       29.68F
WARROAD        PTCLDY    72  64  78 SW3       29.69F
THIEF RVR FALL PTCLDY    72  63  73 S5        29.71F
CROOKSTON      CLEAR     73  64  73 S7        29.71S
FOSSTON        CLEAR     70  61  73 CALM      29.74F
DETROIT LAKES  CLEAR     77  63  61 CALM      29.77S
MOORHEAD       CLEAR     79  66  65 SE3       29.73S
PARK RAPIDS    CLEAR     75  62  64 CALM      29.76F
MAHNOMEN       FAIR      72  65  78 S3        29.74F
$$
MNZ006-009>011-018-025>026-020300-
   North Central Minnesota

CITY           SKY/WX    TMP DP  RH WIND       PRES   REMARKS
BAUDETTE       PTCLDY    72  57  59 W5        29.70F
FLAG ISLAND      N/A     75  55  50 W3        29.67F HAZE
INTL FALLS     PTCLDY    70  56  61 W3        29.71R
WASKISH        MOCLDY    72  63  73 SW7       29.72F
BIG FORK       MOCLDY    64  57  77 CALM      29.74S
LONGVILLE      CLEAR     68  61  77 CALM      29.76F
GRAND RAPIDS   PTCLDY    72  55  56 SW5       29.76F
CRANE LAKE     CLEAR     66  55  68 S3        29.73S
ORR            PTCLDY    64  54  68 CALM      29.71S
COOK           PTCLDY    66  55  68 CALM      29.74S
WALKER         FAIR      70  62  75 S3        29.75F
$$
MNZ012-019>021-037-020300-
   Northeast Minnesota

CITY           SKY/WX    TMP DP  RH WIND       PRES   REMARKS
DULUTH         PTCLDY    71  56  58 W8        29.76F
ELY            PTCLDY    70  52  52 CALM      29.74S
HIBBING        PTCLDY    64  57  78 CALM      29.75F
EVELETH        PTCLDY    72  54  53 SW5       29.76F
DULUTH HARBOR  CLEAR     75  61  60 SW10      29.73F
TWO HARBORS    CLEAR     66  61  82 W5        29.73S
SILVER BAY     CLEAR     66  55  68 CALM        N/A
GRAND MARAIS     N/A     49  43  80 CALM      29.69F
G MARAIS ARPRT   N/A     63  50  63 SW5       29.75S
$$
MNZ029>031-032-039>041-046>048-054>057-064-020300-
   West Central Minnesota

CITY           SKY/WX    TMP DP  RH WIND       PRES   REMARKS
FERGUS FALLS   CLOUDY    79  70  73 CALM      29.72S
WHEATON        CLEAR     75  64  69 S3        29.73F
MORRIS         CLEAR     75  68  78 S6        29.74S
ALEXANDRIA     CLEAR     77  67  71 S8        29.77F
ELBOW LAKE     FAIR      76  71  85 S6        29.73F
WADENA         CLEAR     73  64  73 CALM      29.76S
GLENWOOD       CLEAR     75  70  83 SE3       29.77F
APPLETON       CLEAR     81  66  61 S6        29.75S
BENSON         CLEAR     75  68  78 SW6       29.75S
ORTONVILLE     PTCLDY    77  66  69 CALM      29.74F
MADISON        CLEAR     75  64  69 S5        29.76S
WILLMAR        FAIR      77  70  78 CALM      29.78F
$$
MNZ033>034-036-042>043-049>051-058-059-020300-
   Central Minnesota

CITY           SKY/WX    TMP DP  RH WIND       PRES   REMARKS
ST CLOUD       CLEAR     74  68  81 SE5       29.76F
SAUK CENTRE    FAIR      73  67  83 S5        29.77S
PAYNESVILLE    CLEAR     74  65  71 SE5       29.77F
AITKIN         PTCLDY    68  61  77 CALM      29.76F
PINE RIVER     CLEAR     70  64  83 CALM      29.80F
BRAINERD       PTCLDY    72  63  73 SE3       29.77F
STAPLES        PTCLDY    75  63  64 CALM      29.77S
LONG PRAIRIE   FAIR      72  68  88 CALM      29.77F
LITTLE FALLS   CLEAR     73  63  68 SE5       29.76F
LITCHFIELD     CLEAR     77  68  73 CALM      29.79S
BUFFALO        CLEAR     78  67  69 S5        29.78F
MAPLE LAKE     CLEAR     77  70  78 CALM      29.78F
$$
MNZ037-044-045-052-053-020300-
   East Central Minnesota

CITY           SKY/WX    TMP DP  RH WIND       PRES   REMARKS
PRINCETON      CLEAR     75  66  73 CALM      29.77F
MORA           CLEAR     70  63  78 CALM      29.79F
CAMBRIDGE      CLEAR     77  64  65 CALM      29.76F
RUSH CITY      CLEAR     69  64  85 SE5       29.79F
MOOSE LAKE     PTCLDY    66  59  77 SW3       29.76S
HINCKLEY       FAIR      70  64  83 CALM      29.78F
CLOQUET        CLEAR     72  55  56 SW7       29.76F
MCGREGOR       CLEAR     72  59  64 S5        29.77F
$$
MNZ071>073-080-081-089-090-097-098-020300-
   Southwest Minnesota

CITY           SKY/WX    TMP DP  RH WIND       PRES   REMARKS
MONTEVIDEO     CLEAR     79  63  57 SW8       29.78S
GRANITE FALLS  CLEAR     74  66  75 S7        29.78F
CANBY          PTCLDY    78  63  59 SW8       29.77F
MARSHALL       PTCLDY    77  63  61 S6        29.80F
REDWOOD FALLS  CLEAR     77  68  73 S7        29.78F
OLIVIA         CLEAR     73  64  73 S7        29.77F
PIPESTONE      MOCLDY    73  64  73 S5        29.84F
WINDOM         CLEAR     75  63  64 S3        29.84S
WORTHINGTON    PTCLDY    73  63  68 S8        29.85S
JACKSON        CLEAR     73  64  73 S7        29.86F
TRACY          PTCLDY    77  64  65 S7        29.81F
SLAYTON        PTCLDY    70  65  85 CALM      29.85S
$$
MNZ065>067-074>077-082>085-091>093-020300-
   South Central Minnesota

CITY           SKY/WX    TMP DP  RH WIND       PRES   REMARKS
MANKATO        CLEAR     75  64  69 S8        29.81F
NEW ULM        CLEAR     75  64  69 S7        29.80F
ST JAMES       CLEAR     75  64  69 S7        29.83F
FAIRMONT       CLEAR     75  63  64 S7        29.84F
GLENCOE        CLEAR     77  68  74 S7        29.78F
FARIBAULT      CLEAR     75  66  73 S6        29.82S
OWATONNA       CLEAR     75  64  69 S9        29.83F
WASECA         CLEAR     72  64  78 S7        29.85S
ALBERT LEA     CLEAR     77  64  65 S6        29.86S
$$
MNZ078>079-086>088-094>096-020300-
   Southeast Minnesota

CITY           SKY/WX    TMP DP  RH WIND       PRES   REMARKS
ROCHESTER      CLEAR     72  67  84 S9        29.86S
RED WING       CLEAR     79  66  65 SW3       29.79S
STANTON        CLEAR     76  66  71 CALM      29.79F
DODGE CENTER   CLEAR     75  66  73 S9        29.85F
WINONA         CLEAR     77  66  69 CALM      29.82F
AUSTIN         CLEAR     73  64  73 SW5       29.86S
PRESTON        CLEAR     74  67  79 SW6       29.87S
$$
ABBREVIATIONS USED IN REMARKS
   TC - TEMPERATURES IN CELSIUS
  WCI - WIND CHILL INDEX
   HX - HEAT INDEX
  VSB - VISIBILITY
$$



USA.gov is the U.S. government's official web portal to all federal, state and local government web resources and services.